www.pogodaiklimat.ru

Погода и климат >> Архив погоды >> Туркменистан >> Теджен


ПОГОДА в Теджене

  • Прогноз погоды в Теджене
  • Монитор погоды в Теджене

АРХИВ ПОГОДЫ в Теджене

Время (UTC), дата Ветер
(напр.,м/с)
 
Видим.   Явления Облачность Т
(С)
Тd
(С)
f
(%)
Тe
(С)
Тes
(С)
Комфортность P
(гПа)
Po
(гПа)
Тmin
(С)
Tmax
(С)
R
(мм)
R24
(мм)
S
(см)
12 18.06 СВ 1 10 км ясно +38.4 +8.0 16 +36 +46 очень
жарко
1005.7 985.4
15 18.06 ЮВ 1 10 км 3/0
[Ac trans]
+34.4 +14.3 30 +36 +36 душно 1005.8 985.3 +39.0
18 18.06 штиль 0 10 км 3/0
[Ci fib]
+29.4 +14.0 39 +31 +31 жарко 1005.7 984.8 +39.0
21 18.06 Ю 1 10 км ясно +26.4 +11.1 38 +27 +27 жарко 1005.3 984.2
00 19.06 Ю 2 10 км ясно +22.6 +13.6 57 +26 +26 жарко 1005.0 983.6
03 19.06 Ю 1 10 км 3/0
[Cs]
+29.3 +10.5 31 +29 +34 жарко 1004.8 984.0 +22.4
06 19.06 ЮВ 4 10 км 8/0
[Ci]
+37.4 +7.1 16 +35 +45 очень
жарко
1004.3 984.0 +22.4
09 19.06 ЮВ 3 10 км 4/0
[Ci sp]
+39.6 +8.9 16 +38 +53 опасность
солнечного
удара
1003.8 983.6
12 19.06 З 1 10 км 9/3 1000 м
[Cu hum Cc]
+39.6 +7.0 14 +37 +43 очень
жарко
1003.2 983.1
15 19.06 З 8 10 км 9/8 600 м
[Cb cap Ci sp]
+35.3 +13.8 28 +36 +36 очень
жарко
1003.5 983.1 +40.2
18 19.06 С 4 10 км 9/9 600 м
[Sc]
+29.9 +13.1 36 +31 +31 жарко 1005.7 984.9 +40.2
21 19.06 З 2 10 км 4/0
[Ci fib]
+26.8 +14.3 46 +29 +29 жарко 1005.4 984.4
00 20.06 штиль 0 10 км 8/8 1000 м
[Sc]
+26.3 +14.9 49 +29 +29 жарко 984.6 963.9
03 20.06 З 2 10 км 3/0
[Ci fib]
+29.8 +12.3 34 +31 +35 жарко 1006.3 985.4 +24.2
06 20.06 СЗ 3 10 км ясно +32.9 +14.3 33 +34 +49 очень
жарко
1007.7 987.0 +24.2
09 20.06 СЗ 3 10 км ясно +37.1 +12.4 23 +37 +53 опасность
солнечного
удара
1005.1 984.8
12 20.06 С 2 10 км ясно +38.4 +11.4 20 +38 +46 очень
жарко
1004.2 983.9
15 20.06 СЗ 1 10 км 1/1 1000 м
[Cu med, cong]
+36.1 +14.7 28 +37 +37 душно 1003.4 983.1 +38.4
18 20.06 В 1 10 км ясно +28.1 +16.2 48 +31 +31 душно 1004.6 983.7 +38.4
21 20.06 ЮЗ 1 10 км ясно +28.1 +11.4 35 +29 +29 жарко 1004.6 983.7
00 21.06 В 1 10 км ясно +23.3 +15.9 63 +28 +28 душно 1005.0 983.7
03 21.06 В 1 10 км ясно +30.5 +17.3 45 +34 +39 очень
душно
1004.8 984.1 +23.1
06 21.06 штиль 0 10 км ясно +36.5 +14.8 28 +38 +61 опасность
солнечного
удара
1005.4 985.1 +23.1
09 21.06 С 1 10 км ясно +39.7 +11.7 19 +39 +62 опасность
солнечного
удара
1004.7 984.5
12 21.06 СВ 1 10 км ясно +40.2 +12.3 19 +40 +49 очень
жарко
1003.5 983.4
15 21.06 штиль 0 10 км 4/4 1000 м
[Sc diur, vesp Ac lent]
+36.6 +19.5 37 +42 +42 опасность
перегрева
1003.5 983.2 +40.8
18 21.06 ЮВ 1 10 км ясно +30.8 +14.6 37 +33 +33 душно 1004.7 984.0 +40.8
21 21.06 ЮЗ 1 10 км ясно +29.7 +11.4 32 +30 +30 жарко 1006.0 985.1
00 22.06 З 1 10 км 4/0
[Ci fib]
+25.3 +13.3 47 +27 +27 жарко 1006.5 985.3
03 22.06 СЗ 1 10 км 8/0
[Ac trans Ci fib]
+26.9 +11.5 38 +28 +31 жарко 1007.2 986.2 +23.1
06 22.06 СЗ 4 10 км 8/0
[Ac trans Ci]
+35.8 +7.4 17 +34 +41 очень
жарко
1007.1 986.6 +23.1
09 22.06 СЗ 5 10 км 4/0
[Ac trans Ci fib]
+39.2 +3.8 11 +36 +44 очень
жарко
1006.9 986.6
12 22.06 СЗ 4 10 км 8/0
[Ac trans Ci]
+39.6 +5.5 12 +37 +40 очень
жарко
1006.4 986.2
15 22.06 З 2 10 км 4/0
[Ci fib]
+35.1 +13.0 26 +35 +35 очень
жарко
1006.3 985.8 +40.6
18 22.06 СВ 3 10 км ясно +28.2 +9.8 32 +28 +28 жарко 1007.0 986.1 +40.6
21 22.06 СВ 2 10 км ясно +25.4 +7.3 32 +25 +25 комфорт 1008.8 987.6
00 23.06 З 3 10 км ясно +22.4 +8.9 42 +24 +24 комфорт 1010.1 989.7
03 23.06 З 2 10 км ясно +26.4 +10.4 37 +27 +31 жарко 1011.3 990.1 +21.1
06 23.06 СЗ 4 10 км ясно +34.2 +5.5 17 +32 +43 жарко 1011.3 990.6 +21.1
09 23.06 С 4 10 км ясно +37.6 +4.8 13 +35 +48 очень
жарко
1011.1 990.6
12 23.06 С 5 10 км ясно +38.4 +1.1 10 +35 +39 очень
жарко
1010.3 989.8
15 23.06 СЗ 2 10 км ясно +36.1 +8.0 18 +34 +34 очень
жарко
1010.4 989.8 +38.6
18 23.06 С 2 10 км ясно +27.5 +11.0 36 +28 +28 жарко 1010.2 989.1 +38.6
21 23.06 штиль 0 10 км ясно +25.0 +11.0 41 +26 +26 жарко 1010.4 989.2
00 24.06 С 2 10 км ясно +21.8 +10.7 49 +24 +24 комфорт 1010.9 989.4
03 24.06 С 1 10 км ясно +25.9 +13.7 47 +28 +33 жарко 1011.6 990.4 +20.7
06 24.06 С 5 10 км ясно +36.0 +20.4 40 +42 +51 опасность
перегрева
1009.4 986.0 +19.6
09 24.06 СВ 2 10 км ясно +39.1 +8.1 15 +37 +57 опасность
солнечного
удара
1011.5 991.1
12 24.06 В 2 10 км ясно +39.5 +7.0 14 +37 +45 очень
жарко
1010.7 990.4
15 24.06 В 2 10 км ясно +35.5 +16.4 32 +38 +38 очень
душно
1009.4 988.9 +39.8
18 24.06 СВ 1 10 км ясно +26.7 +11.8 39 +28 +28 жарко 1010.1 988.9 +39.8
21 24.06 штиль 0 10 км ясно +24.0 +13.3 51 +26 +26 жарко 1010.1 988.8
00 25.06 З 2 10 км ясно +21.8 +11.2 51 +24 +24 комфорт 1010.5 989.0
03 25.06 штиль 0 10 км ясно +25.0 +11.2 42 +26 +32 жарко 1010.4 989.2 +20.8
06 25.06 З 1 10 км ясно +36.2 +5.6 15 +34 +54 опасность
солнечного
удара
1009.7 989.2 +20.8
09 25.06 С 3 10 км ясно +38.8 +3.0 11 +36 +52 опасность
солнечного
удара
1009.1 988.8

 

Местоположение метеостанции Теджен (Ахалский велаят, Туркменистан): широта 37.38 долгота 60.52 высота над уровнем моря 186 м.

В архиве по умолчанию представлена погода в Теджене за последнюю неделю. Архивные данные за месяц целиком и за предыдущие месяцы, начиная с января 2011 года, Вы можете получить, выбрав интересующий диапазон дат из раскрывающегося списка и нажав кнопку "Ввод!".


*Определитесь, кто Вы:
робот инопланетянин человек

Внимание! Время в таблицах - всемирное. Для получения местного времени необходимо прибавить поправку, которая равна 5 ч.

Смотрите также архив погоды в соседних городах и на ближайших метеорологических станциях:

Погода в Каке (Ахалский велаят, Туркменистан) (79 км)
Погода в Серахсе (Иран) (111 км)
Погода в Сарагте (Ахалский велаят, Туркменистан) (113 км)
Погода в Мешхеде (Иран) (147 км)
Погода в Байрамалы (Ахалский велаят, Туркменистан) (149 км)
Погода в Елетене (Марыйский велаят, Туркменистан) (168 км)
Погода в Кучане (Иран) (182 км)
Погода в Ашхабаде (город Ашхабад, Туркменистан) (202 км)
Погода в Багтыярлыке (Марыйский велаят, Туркменистан) (215 км)
Погода в Акмолле (Ахалский велаят, Туркменистан) (250 км)

Пояснения к столбцам:

Ветер - указаны скорость ветра в м/с - средняя за 10 мин, порывы в срок и между сроками (в фигурных скобках) и направление, откуда дует ветер: С - северный, СВ - северо-восточный, В - восточный, ЮВ - юго-восточный, Ю - южный, ЮЗ - юго-западный, З - западный, СЗ - северо-западный.
Видимость - горизонтальная дальность видимости в метрах или километрах. При видимости от 1 до 10 км при отсутствии осадков обычно наблюдается дымка, при ухудшении видимости до 1 км и менее - туман. В сухую погоду видимость может ухудшаться дымом, пылью или мглою.
Явления - указаны атмосферные явления, наблюдавшиеся в срок или в последний час перед сроком; фигурными скобками обозначены явления, наблюдавшиеся между сроками (за 1-3 часа до срока); квадратными скобками обозначены град или гололедные отложения с указанием их диаметра в мм.
Облачность - указаны через наклонную черту общая и нижняя облачность в баллах и высота нижней границы облаков в метрах; квадратными скобками обозначены формы облаков: Ci - перистые, Cs - перисто-слоистые, Cc - перисто-кучевые, Ac - высококучевые, As - высокослоистые, Sc - слоисто-кучевые, Ns - слоисто-дождевые, Cu - кучевые, Cb - кучево-дождевые. Подробнее классификацию облаков см. в Атласе облаков (PDF).
T - Температура воздуха - температура, измеренная на высоте 2 м над землей.
Td - Температура точки росы - температура, при понижении до которой содержащийся в воздухе водяной пар достигнет насыщения.
f - Относительная влажность воздуха - влажноcть воздуха, измеренная на высоте 2 м над землей.
Te - Эффективная температура - температура, которую ощущает одетый по сезону человек в тени. Характеристика душности погоды. При расчете учитывается влияние влажности воздуха и скорости ветра на теплоощущения человека.
Tes - Эффективная температура на солнце - температура, которую ощущает человек, с поправкой на солнечный нагрев. Характеристика знойности погоды. Зависит от высоты солнца над горизонтом, облачности и скорости ветра. Ночью, в пасмурную погоду, а также при ветре 12 м/с и более поправка равна нулю.
P - Атмосферное давление - приведенное к уровню моря атмосферное давление.
Po - Атмосферное давление - измеренное на уровне метеостанции атмосферное давление.
Tmin - Минимальная температура - минимум температуры воздуха на высоте 2 м над землей.
Tmax - Максимальная температура - максимум температуры воздуха на высоте 2 м над землей.
R - Количество осадков - Количество выпавших осадков за период времени, мм. При наведении курсора мыши на число - период времени, за который выпало указанное количество осадков.
R24 - Количество осадков - Количество выпавших осадков за 24 часа, мм.
S - Снежный покров - Высота снежного покрова, см. При наведении курсора мыши на число - состояние снежного покрова и степень покрытия местности в баллах.